[[{"header":{"parameterUnit":"m.s-1","parameterCategory":1,"la1":30.2991,"la2":30.254,"lo1":-89.0895,"lo2":-89.0444,"dx":0.0017,"dy":0.0017,"nx":28,"ny":28,"refTime":"2022-11-03T21:00:00:Z","depth":0,"parameterNumber":2,"parameterNumberName":"U-component_of_WINDS"},"data":[0,0,0,0,0,0,0,0,0,0,0,0,0,0,0,0,0,0,0,0,0,0,0,0,0,0,0,0,0,0,0,0,0,0,0,0,0,0,0,0,0,0,0,0,0,0,0,0,0,0,0,0,0,0,0,0,0,0,-2.6533,-2.6534,0,-2.663,-2.6631,-2.6633,-2.6613,-2.6611,-2.6609,-2.6607,-2.6709,-2.6713,-2.6717,0,0,0,0,0,0,0,0,0,0,0,0,0,-2.6333,-2.6337,-2.6533,-2.6534,-2.6535,-2.663,-2.6631,-2.6633,-2.6613,-2.6611,-2.6609,-2.6607,-2.6707,-2.6713,-2.6718,0,0,0,0,0,0,0,0,0,0,0,0,0,-2.6424,-2.6338,-2.6533,-2.6537,-2.6538,-2.663,-2.6632,-2.6633,-2.6613,-2.6611,-2.6608,-2.6606,-2.6706,-2.6712,-2.6719,-2.6813,0,0,-2.6739,-2.6741,0,0,0,0,0,0,0,0,-2.6419,-2.6431,-2.6535,-2.6537,-2.6538,-2.6607,-2.6598,-2.6693,-2.6614,-2.6585,-2.6607,-2.6604,-2.6677,-2.6686,-2.671,-2.6817,-2.6822,-2.6739,-2.6743,-2.6746,-2.6748,0,0,0,0,0,0,0,-2.6413,-2.6427,-2.6572,-2.6537,-2.6539,-2.6535,-2.6545,-2.6616,-2.6645,-2.6587,-2.6586,-2.6598,-2.6678,-2.6704,-2.6712,-2.6823,-2.6739,-2.6745,-2.6749,-2.6751,-2.7015,-2.7018,0,0,0,0,0,0,-2.6404,-2.6422,-2.6568,-2.6574,-2.6471,-2.6541,-2.6552,-2.6587,-2.6644,-2.665,-2.66,-2.6596,-2.6694,-2.6705,-2.6716,-2.6831,-2.6746,-2.6752,-2.6756,-2.7012,-2.7016,-2.7019,0,0,0,0,0,0,-2.64,-2.6418,-2.6565,-2.6498,-2.6516,-2.6547,-2.6587,-2.6591,-2.6617,-2.6654,-2.6659,-2.6621,-2.6692,-2.6707,-2.6789,-2.6834,-2.6755,-2.6761,-2.7008,-2.7013,-2.7017,-2.7061,0,0,0,0,0,0,-2.6394,-2.6416,-2.6451,-2.6499,-2.652,-2.6635,-2.659,-2.6595,-2.6628,-2.6624,-2.6675,-2.6681,-2.6691,-2.6779,-2.6796,-2.6842,-2.6766,-2.7004,-2.7011,-2.7016,-2.7056,-2.7066,-2.7076,0,0,0,0,0,-2.6387,-2.646,-2.6453,-2.6471,-2.6565,-2.6638,-2.665,-2.666,-2.6632,-2.6668,-2.6692,-2.6679,-2.6827,-2.6788,-2.6806,-2.6855,-2.7002,-2.7009,-2.7016,-2.7051,-2.7064,-2.7076,0,0,0,0,0,0,-2.6417,-2.6466,-2.6459,-2.6549,-2.659,-2.6634,-2.668,-2.6673,-2.6723,-2.6717,-2.6728,-2.674,-2.6824,-2.6848,-2.6804,-2.695,-2.691,-2.6921,-2.6931,-2.6944,-2.6954,-2.6947,-2.6771,0,0,0,0,0,-2.6434,-2.6489,-2.6529,-2.6604,-2.6625,-2.6649,-2.6682,-2.6686,-2.6728,-2.6745,-2.6775,-2.6818,-2.6874,-2.691,-2.6964,-2.7059,-2.7071,-2.7102,-2.7112,-2.712,-2.7129,-2.7183,-2.7198,-2.7042,-2.7042,-2.7042,0,0,-2.647,-2.6503,-2.6537,-2.6611,-2.6643,-2.67,-2.6664,-2.6726,-2.6769,-2.6755,-2.6835,-2.6859,-2.6907,-2.6997,-2.7038,-2.7019,-2.7175,-2.7129,-2.7135,-2.714,-2.7192,-2.7207,-2.722,-2.7046,-2.7046,-2.7045,0,0,-2.6564,-2.6594,-2.6661,-2.6694,-2.6743,-2.6759,-2.6775,-2.6821,-2.6836,-2.6917,-2.6908,-2.696,-2.7056,-2.7091,-2.7121,-2.7231,-2.7222,-2.7249,-2.7301,-2.7354,-2.7366,-2.7377,-2.7417,-2.7431,-2.7258,-2.7258,-2.7258,0,-2.6602,-2.6687,-2.6696,-2.676,-2.6793,-2.6784,-2.6852,-2.6884,-2.6948,-2.6972,-2.695,-2.7071,-2.7102,-2.7201,-2.7228,-2.7253,-2.7273,-2.7243,-2.7363,-2.7374,-2.7385,-2.7423,-2.7438,-2.7261,-2.7261,-2.726,-2.726,0,-2.6732,-2.6792,-2.684,-2.6902,-2.6941,-2.7007,-2.7027,-2.7066,-2.7067,-2.7086,-2.7169,-2.7207,-2.7269,-2.7293,-2.7294,-2.7392,-2.7379,-2.736,-2.7321,-2.7403,-2.7439,-2.7454,-2.7265,-2.7264,-2.7263,-2.7262,0,0,-2.6846,-2.6914,-2.6931,-2.696,-2.7014,-2.7061,-2.7127,-2.7187,-2.722,-2.7266,-2.7322,-2.7404,-2.7388,-2.7422,-2.7429,-2.7475,-2.7561,-2.745,-2.7452,-2.747,-2.7673,-2.7687,-2.7703,-2.7555,-2.7558,-2.756,-2.7669,0,-2.6946,-2.7061,-2.7073,-2.7177,-2.7233,-2.7225,-2.7283,-2.7323,-2.7343,-2.7395,-2.7417,-2.7476,-2.7449,-2.747,-2.7515,-2.7541,-2.7602,-2.7533,-2.7609,-2.7612,-2.7597,-2.7722,-2.7737,-2.7837,-2.7683,-2.7685,-2.7687,0,-2.7077,-2.7126,-2.7236,-2.7283,-2.7307,-2.7359,-2.7416,-2.7465,-2.7511,-2.7522,-2.7562,-2.7563,-2.7632,-2.759,-2.7687,-2.7641,-2.7673,-2.769,-2.7694,-2.7702,-2.7654,-2.7734,-2.787,-2.7885,-2.771,-2.7708,-2.7706,0,-2.715,-2.7244,-2.7322,-2.7346,-2.7404,-2.744,-2.7466,-2.751,-2.7546,-2.7596,-2.762,-2.7678,-2.771,-2.7755,-2.7772,-2.774,-2.7869,-2.7828,-2.7881,-2.7881,-2.7909,-2.7907,-2.8052,-2.7929,-2.7929,-2.7928,-2.7928,0,-2.726,-2.7328,-2.7355,-2.7403,-2.748,-2.7493,-2.7568,-2.7592,-2.7631,-2.7685,-2.7683,-2.7733,-2.7752,-2.7807,-2.782,-2.79,-2.7914,-2.7926,-2.7929,-2.7926,-2.7925,-2.7947,-2.7941,-2.7932,-2.7932,-2.7931,-2.793,0,-2.7354,-2.7375,-2.746,-2.7508,-2.7522,-2.7576,-2.7617,-2.7665,-2.7684,-2.7752,-2.7769,-2.7801,-2.7865,-2.7886,-2.7964,-2.7973,-2.8066,-2.8062,-2.805,-2.805,-2.8103,-2.8098,-2.8268,-2.8291,-2.8153,-2.8154,-2.8155,0,-2.7423,-2.7475,-2.7529,-2.7564,-2.7591,-2.7649,-2.7686,-2.7701,-2.774,-2.7798,-2.7838,-2.7902,-2.7953,-2.8056,-2.8087,-2.8147,-2.8145,-2.8201,-2.8154,-2.815,-2.8147,-2.8144,-2.815,-2.8209,-2.8211,-2.8212,-2.8213,0,-2.7543,-2.7552,-2.7604,-2.7662,-2.7706,-2.7752,-2.7797,-2.7826,-2.7849,-2.7893,-2.7958,-2.7998,-2.8078,-2.8141,-2.8203,-2.823,-2.8226,-2.8227,-2.8243,-2.8241,-2.8232,-2.8238,-2.8074,-2.8223,-2.8222,-2.8221,-2.8221,-2.822,-2.7627,-2.7674,-2.7719,-2.7779,-2.7814,-2.7856,-2.7903,-2.7929,-2.7984,-2.8049,-2.8055,-2.8126,-2.8173,-2.8255,-2.8287,-2.8343,-2.8328,-2.835,-2.8356,-2.8361,-2.8366,-2.8223,-2.8354,-2.8354,-2.8354,-2.8354,-2.8353,0,-2.7748,-2.7777,-2.7832,-2.7894,-2.7942,-2.7933,-2.7983,-2.8023,-2.8085,-2.8129,-2.818,-2.8256,-2.8318,-2.8355,-2.8417,-2.8456,-2.8456,-2.8472,-2.8469,-2.8476,-2.8375,-2.8356,-2.8471,-2.8471,-2.8471,-2.8471,-2.8471,-2.8471,-2.7816,-2.7894,-2.7909,-2.8005,-2.8034,-2.8103,-2.8132,-2.8172,-2.8207,-2.8292,-2.8343,-2.8366,-2.8408,-2.8474,-2.8531,-2.854,-2.8564,-2.8582,-2.859,-2.8495,-2.8483,-2.8471,-2.8453,-2.8587,-2.8587,-2.8686,-2.8687,-2.8687]},{"header":{"parameterUnit":"m.s-1","parameterCategory":1,"la1":30.2991,"la2":30.254,"lo1":-89.0895,"lo2":-89.0444,"dx":0.0017,"dy":0.0017,"nx":28,"ny":28,"refTime":"2022-11-03T21:00:00:Z","depth":0,"parameterNumber":3,"parameterNumberName":"V-component_of_WINDS"},"data":[0,0,0,0,0,0,0,0,0,0,0,0,0,0,0,0,0,0,0,0,0,0,0,0,0,0,0,0,0,0,0,0,0,0,0,0,0,0,0,0,0,0,0,0,0,0,0,0,0,0,0,0,0,0,0,0,0,0,1.4356,1.4357,0,1.4457,1.4458,1.4459,1.449,1.449,1.4489,1.4489,1.4592,1.4595,1.4598,0,0,0,0,0,0,0,0,0,0,0,0,0,1.4189,1.4192,1.4356,1.4357,1.4358,1.4457,1.4458,1.446,1.449,1.449,1.4489,1.4488,1.4591,1.4595,1.4599,0,0,0,0,0,0,0,0,0,0,0,0,0,1.4273,1.4193,1.4355,1.4385,1.4389,1.4457,1.4458,1.446,1.449,1.449,1.4489,1.4488,1.459,1.4594,1.4599,1.4644,0,0,1.4614,1.4616,0,0,0,0,0,0,0,0,1.4268,1.4279,1.438,1.4383,1.4388,1.446,1.4438,1.4522,1.4491,1.4452,1.4489,1.4488,1.4549,1.4557,1.4578,1.4649,1.4654,1.4614,1.4617,1.4619,1.4621,0,0,0,0,0,0,0,1.4262,1.4275,1.4396,1.4381,1.4386,1.4394,1.4405,1.4454,1.4503,1.4455,1.4458,1.4469,1.4551,1.4573,1.458,1.4655,1.4614,1.4619,1.4622,1.4623,1.4771,1.4772,0,0,0,0,0,0,1.4251,1.427,1.4393,1.4399,1.4325,1.4397,1.441,1.4438,1.4503,1.4512,1.447,1.447,1.4565,1.4575,1.4584,1.4643,1.4619,1.4624,1.4627,1.477,1.4771,1.4772,0,0,0,0,0,0,1.4248,1.4262,1.4388,1.4335,1.4352,1.4401,1.4432,1.444,1.4462,1.4514,1.4523,1.4483,1.4565,1.4577,1.463,1.4647,1.4626,1.4631,1.4769,1.477,1.4772,1.4759,0,0,0,0,0,0,1.4243,1.426,1.4278,1.4335,1.4354,1.4432,1.4433,1.4443,1.4471,1.4472,1.4529,1.4538,1.4565,1.4622,1.4634,1.4653,1.4634,1.4768,1.477,1.4771,1.4758,1.476,1.4762,0,0,0,0,0,1.4237,1.427,1.4278,1.4293,1.4377,1.4433,1.4444,1.4475,1.4472,1.449,1.4524,1.4536,1.4643,1.4627,1.4641,1.4662,1.4767,1.4769,1.4771,1.4758,1.476,1.4762,0,0,0,0,0,0,1.4212,1.4278,1.4288,1.4341,1.4381,1.4438,1.4462,1.4476,1.4518,1.4518,1.4555,1.4567,1.4617,1.4645,1.4626,1.471,1.4705,1.471,1.469,1.4693,1.4694,1.4687,1.4638,0,0,0,0,0,1.4213,1.4253,1.4308,1.4349,1.4369,1.4412,1.4437,1.4458,1.4501,1.4518,1.4556,1.4597,1.464,1.4668,1.471,1.4763,1.4776,1.4783,1.4785,1.4786,1.479,1.4822,1.4826,1.478,1.478,1.478,0,0,1.4215,1.4256,1.4278,1.4345,1.4379,1.442,1.4426,1.4468,1.4499,1.4525,1.4577,1.4606,1.4655,1.4708,1.4733,1.4732,1.4806,1.4789,1.479,1.4793,1.4825,1.4829,1.4833,1.4782,1.4781,1.4781,0,0,1.424,1.4274,1.4313,1.4347,1.4398,1.4427,1.4436,1.4492,1.4512,1.4565,1.4586,1.4623,1.4696,1.4731,1.4758,1.4798,1.4811,1.481,1.4819,1.4849,1.4853,1.4857,1.4872,1.4877,1.4814,1.4814,1.4814,0,1.4236,1.4298,1.4331,1.4373,1.4402,1.4428,1.4468,1.45,1.4562,1.4582,1.458,1.4674,1.4708,1.4771,1.4781,1.4801,1.4814,1.4804,1.485,1.4854,1.4857,1.4873,1.4878,1.4814,1.4814,1.4814,1.4814,0,1.4291,1.4334,1.4359,1.442,1.4452,1.4493,1.4533,1.4561,1.458,1.4609,1.4663,1.4706,1.4758,1.4775,1.4792,1.484,1.4838,1.4843,1.4839,1.4861,1.4876,1.4882,1.4813,1.4814,1.4814,1.4814,0,0,1.4303,1.4382,1.4391,1.442,1.4479,1.4513,1.4555,1.4607,1.4632,1.4674,1.4712,1.4774,1.4779,1.481,1.4832,1.4858,1.4889,1.486,1.4862,1.4865,1.4947,1.4944,1.495,1.4898,1.49,1.4901,1.4943,0,1.4336,1.4413,1.4445,1.4508,1.4549,1.4574,1.4612,1.4652,1.4681,1.472,1.4752,1.4796,1.4799,1.4818,1.4845,1.488,1.4906,1.4877,1.4935,1.4936,1.4922,1.4958,1.4954,1.4992,1.4949,1.495,1.4951,0,1.4385,1.4429,1.4496,1.4552,1.457,1.4603,1.4654,1.4691,1.4738,1.4758,1.4793,1.4814,1.486,1.4853,1.4919,1.4898,1.4924,1.4945,1.4947,1.4954,1.4945,1.4967,1.5005,1.5011,1.496,1.4959,1.4959,0,1.4388,1.4464,1.4514,1.4538,1.4604,1.4627,1.4656,1.4702,1.4732,1.4777,1.4797,1.4846,1.4873,1.4911,1.4945,1.4936,1.5008,1.5003,1.5026,1.5025,1.504,1.5039,1.5084,1.5055,1.5055,1.5055,1.5054,0,1.4423,1.4463,1.4517,1.4548,1.4595,1.4631,1.4676,1.4707,1.4748,1.4786,1.4811,1.4846,1.4889,1.493,1.4957,1.5008,1.5019,1.5037,1.5044,1.5035,1.5033,1.5053,1.5052,1.5056,1.5056,1.5055,1.5055,0,1.4434,1.4472,1.4529,1.4588,1.4603,1.4635,1.4686,1.4717,1.4747,1.4795,1.4809,1.4856,1.4906,1.4944,1.5008,1.5026,1.5081,1.5088,1.5065,1.5069,1.509,1.5088,1.515,1.5161,1.5123,1.5123,1.5124,0,1.4454,1.4486,1.4549,1.4576,1.4605,1.4648,1.4679,1.4717,1.4748,1.4805,1.483,1.4882,1.4925,1.5003,1.5044,1.5094,1.5103,1.5121,1.511,1.5101,1.5105,1.5103,1.5107,1.5122,1.5123,1.5123,1.5123,0,1.4486,1.4504,1.4547,1.4598,1.4634,1.4676,1.4718,1.4739,1.4784,1.4818,1.487,1.4903,1.497,1.5021,1.5075,1.5105,1.5122,1.5126,1.5134,1.5126,1.5113,1.5122,1.507,1.5125,1.5124,1.5124,1.5124,1.5124,1.4504,1.4534,1.4583,1.4631,1.4667,1.4706,1.474,1.4775,1.4818,1.4875,1.4895,1.4948,1.4996,1.5071,1.5102,1.5145,1.5145,1.5156,1.516,1.5162,1.5162,1.5105,1.5154,1.5154,1.5154,1.5154,1.5154,0,1.4538,1.4571,1.4615,1.4674,1.4712,1.4725,1.4773,1.4804,1.4851,1.4895,1.4937,1.4997,1.5048,1.5093,1.5145,1.5171,1.518,1.5184,1.5183,1.519,1.5158,1.5146,1.5176,1.5176,1.5176,1.5176,1.5176,1.5176,1.4561,1.4613,1.4637,1.4708,1.4741,1.4794,1.482,1.4857,1.4892,1.4958,1.5,1.503,1.5074,1.5131,1.5178,1.519,1.5209,1.5211,1.5225,1.5194,1.5192,1.5189,1.5179,1.5214,1.5214,1.5253,1.5254,1.5254]}]]